Regional Weather Roundup
Issued by NWS

Home | Current Version | Previous Version | Text Only | Print | Product List | Glossary On
Versions: 1 2 3 4 5 6 7 8 9 10 11 12 13 14 15 16 17 18 19 20 21 22 23 24 25 26 27 28 29 30 31 32 33 34 35 36 37 38 39 40 41 42 43 44 45 46 47 48 49 50
000
ASUS44 KFWD 011401
RWRTX
NORTH TEXAS HOURLY WEATHER ROUNDUP
NATIONAL WEATHER SERVICE FORT WORTH TX
900 AM CDT SAT OCT 01 2016

NOTE: "FAIR" INDICATES FEW OR NO CLOUDS BELOW 12,000 FEET WITH NO
SIGNIFICANT WEATHER AND/OR OBSTRUCTIONS TO VISIBILITY.

TXZ118-119-011500-
DALLAS/FORT WORTH METROPLEX

CITY           SKY/WX    TMP DP  RH WIND       PRES   REMARKS
DFW AIRPORT    PTSUNNY   67  57  70 CALM      30.10S
DALLAS LOVE    PTSUNNY   67  59  75 CALM      30.11S
FTW MEACHAM    MOSUNNY   68  56  65 CALM      30.10F
DAL-EXECUTIVE  MOSUNNY   69  56  62 CALM      30.10S
FTW-ALLIANCE   PTSUNNY   64  56  75 CALM      30.11S
FTW-NAS-JRB    MOSUNNY   67  57  70 CALM      30.11S
FTW-SPINKS     SUNNY     59  57  94 CALM      30.12S
ARLINGTON      MOSUNNY   64  55  72 CALM      30.11S
ADDISON        SUNNY     68  57  68 CALM      30.12R
LANCASTER      MOSUNNY   66  52  60 CALM      30.12S
$$

TXZ091>094-102>105-117-120-121-131>134-011500-
NORTH CENTRAL TEXAS

CITY           SKY/WX    TMP DP  RH WIND       PRES   REMARKS
SHRMAN/DENISON NOT AVBL
BRIDGEPORT     CLOUDY    61  58  91 CALM      30.13S
DECATUR        PTSUNNY   61  51  67 CALM      30.12S
DENTON         PTSUNNY   64  57  78 CALM      30.11S
MCKINNEY       MOSUNNY   64  58  80 CALM      30.11S
GREENVILLE     MOSUNNY   64  55  72 CALM      30.12S
ROCKWALL       MOSUNNY   65  54  67 CALM      30.11R
TERRELL        MOSUNNY   64  57  78 NE3       30.11S
WAXAHACHIE     PTSUNNY   63  57  81 CALM      30.13R
CLEBURNE       CLOUDY    63  59  88 CALM      30.13R
$$

TXZ083>090-098>101-113>116-127>130-139>142-154-155-011500-
WESTERN NORTH TEXAS

CITY           SKY/WX    TMP DP  RH WIND       PRES   REMARKS
WICHITA FALLS  MOSUNNY   62  55  77 SE3       30.10S
WF-KICKAPOO    CLOUDY    64  56  75 CALM      30.12S
VERNON         MOSUNNY   63  53  69 SE5       30.11F
ABILENE        PTSUNNY   61  54  77 SE5       30.13R
ABILENE-DYESS  MOSUNNY   65  55  69 SE3       30.11R
CISCO          MOSUNNY   64  52  63 S9        30.12S
MINERAL WELLS  MOSUNNY   61  57  87 CALM      30.10S
STEPHENVILLE   MOSUNNY   61  55  81 CALM      30.15R
COMANCHE       PTSUNNY   60  57  87 CALM      30.12S
COLEMAN        PTSUNNY   62  55  78 CALM      30.13S
$$

TXZ143>147-156>162-174-175-011500-
CENTRAL TEXAS

CITY           SKY/WX    TMP DP  RH WIND       PRES   REMARKS
WACO           CLOUDY    62  58  86 CALM      30.12R
WACO-MCGREGOR  MOSUNNY   61  56  83 CALM      30.12R
HILLSBORO      CLOUDY    66  54  65 CALM      30.12S
CORSICANA      MOSUNNY   66  57  72 CALM      30.13R
MEXIA          PTSUNNY   66  56  69 CALM      30.11S
HEARNE         MOSUNNY   61  57  87 CALM      30.13S
CAMERON        CLOUDY    64  56  77 CALM      30.12S
TEMPLE         CLOUDY    61  57  87 CALM      30.12S
KILLEEN        CLOUDY    65  55  71 CALM      30.11S
KILLEEN-SKYLRK CLOUDY    63  59  87 CALM      30.12S
FORT HOOD      CLOUDY    63  57  80 CALM      30.09S
HAMILTON       CLOUDY    62  56  79 S3        30.13R
$$

TXZ095>097-106>112-122>126-135>138-148>153-164>167-011500-
EAST TEXAS

CITY           SKY/WX    TMP DP  RH WIND       PRES   REMARKS
PARIS          CLOUDY    61  54  77 CALM      30.12R
SULPHUR SPRNGS SUNNY     63  55  76 CALM      30.13S
GILMER         CLOUDY    60  56  86 CALM      30.11S
MINEOLA        MOSUNNY   64  59  82 CALM      30.11S
TYLER          MOSUNNY   67  60  78 S5        30.11S
LONGVIEW       CLOUDY    63  60  90 CALM      30.11R
MARSHALL       CLOUDY    58  54  88 CALM      30.13S
ATHENS         MOSUNNY   63  55  77 CALM      30.11S
PALESTINE      MOSUNNY   64  60  87 CALM      30.13R
JACKSONVILLE   MOSUNNY   67  56  68 CALM      30.14R
HENDERSON      MOSUNNY   64  60  87 CALM      30.13S
NACOGDOCHES    MOSUNNY   63  57  82 CALM      30.11R
LUFKIN         PTSUNNY   64  58  80 CALM      30.12R
$$

SUPPLEMENTAL OBSERVATIONS (CENTRAL)

CITY           SKY/WX    TMP DP  RH WIND       PRES   REMARKS
$$

SUPPLEMENTAL OBSERVATIONS (WEST)

CITY           SKY/WX    TMP DP  RH WIND       PRES   REMARKS
$$

SUPPLEMENTAL OBSERVATIONS (EAST)

CITY           SKY/WX    TMP DP  RH WIND       PRES   REMARKS
$$

SUPPLEMENTAL OBSERVATIONS ARE A COLLECTION OF AUTOMATED INSTRUMENTS
THAT ARE MAINTAINED BY A VARIETY OF FEDERAL AND STATE AGENCIES.
CERTAIN ELEMENTS...SUCH AS HUMIDITY VALUES AND SUSTAINED WIND
SPEEDS...MAY BE APPROXIMATED.




USA.gov is the U.S. government's official web portal to all federal, state and local government web resources and services.